Location: Curupao
(10.4996°N, 66.6442°W)
Time: 00:54:28
(UTC+00:00)

Cosmos 1939 Rocket - Pass Details

Date: 23 May 2024
Orbit: 515 x 557 km, 97.4° (Epoch: 12 June)

Event Time Altitude Azimuth Distance (km) Brightness Sun altitude
Rises 08:47:27 0° 11° (N) 2,728 6.9 -18.0°
Reaches altitude 10° 08:49:34 10° 11° (N) 1,835 6.0 -17.6°
Maximum altitude 08:53:33 90° 51° (NE) 560 2.8 -16.7°
Enters shadow 08:56:53 14° 191° (SSW) 1,568 4.8 -15.9°
